Location: Vancouver
(49.2500°N, 123.1330°W)
Time: 14:02:39
(UTC-07:00)

deb Explorer IX - Visible Passes

Search period start: 22 June 2018 00:00
Search period end: 02 July 2018 00:00
Orbit: 551 x 1109 km, 38.8° (Epoch: 21 June)

Date Brightness Start Highest point End Pass type
(mag) Time Alt. Az. Time Alt. Az. Time Alt. Az.
22 Jun ? 00:42:12 10° SW 00:43:56 12° SW 00:43:56 12° SW visible
22 Jun ? 22:33:08 10° WSW 22:37:50 24° SSW 22:42:24 12° SSE visible
23 Jun ? 00:21:58 10° SW 00:23:50 12° SW 00:23:50 12° SW visible
23 Jun ? 22:12:39 10° WSW 22:17:08 23° SSW 22:22:06 10° SE visible
24 Jun ? 00:01:56 10° SW 00:03:20 11° SSW 00:03:46 11° SSW visible
